Cut Bank, MT

4:53 PM MDT on October 22, 2019 (GMT -0600)
Cut Bank Municipal

Weather History for KCTB - September, 2019

Change the Weather History Date:

Monday, September 16, 2019

  Actual Average Record
Temperature  
Mean Temperature 62 °F 54 °F  
Max Temperature 81 °F 68 °F 90 °F (1938)
Min Temperature 44 °F 40 °F 25 °F (1973)
Degree Days  
Heating Degree Days 2 12  
Month to date heating degree days 96 147  
Since 1 July heating degree days 269 341  
Cooling Degree Days 0 0  
Month to date cooling degree days 2 6  
Year to date cooling degree days 106 159  
Growing Degree Days 12 (Base 50)    
Moisture  
Dew Point 37 °F    
Average Humidity 48    
Maximum Humidity 80    
Minimum Humidity 15    
Precipitation  
Precipitation T in 0.04 in 0.83 in (1959)
Month to date precipitation 0.49 0.71  
Year to date precipitation 9.32 9.37  
Snow  
Snow - - - ()
Snow Depth 0.00 in    
Sea Level Pressure  
Sea Level Pressure 29.64 in    
Wind  
Wind Speed 7 mph ()    
Max Wind Speed 32 mph    
Max Gust Speed 41 mph    
Visibility 10.0 miles    
Events      
T = Trace of Precipitation, MM = Missing Value Source: Averaged Metar Reports

Daily Weather History Graph

Daily Weather History Graph

Search for Another Location

Airport or City:

Astronomy

Sep. 16, 2019 Rise Set
Actual Time 7:07 AM MDT 7:40 PM MDT
Civil Twilight 6:35 AM MDT 8:11 PM MDT
Nautical Twilight 5:58 AM MDT 8:49 PM MDT
Astronomical Twilight 5:19 AM MDT 9:28 PM MDT
Moon 9:06 PM MDT (9/16) 9:25 AM MDT (9/16)
Length of Visible Light 13h 35m
Length of Day
12h 32m
Waning Gibbous, 94% of the Moon is Illuminated
Sep 16
Waning Gibbous
Sep 21
Last Quarter
Sep 28
New
Oct 5
First Quarter
Oct 13
Full

Hourly Weather History & Observations

Time (MDT) Temp. Windchill Dew Point Humidity Pressure Visibility Wind Dir Wind Speed Gust Speed Precip Events Conditions
12:56 AM 52.0 °F - 39.0 °F 61% 29.64 in 10.0 mi North 5.8 mph - N/A   Clear
1:56 AM 48.0 °F - 39.0 °F 71% 29.65 in 10.0 mi NNW 3.5 mph - N/A   Clear
2:56 AM 48.0 °F - 39.0 °F 71% 29.62 in 10.0 mi North 4.6 mph - N/A   Clear
3:56 AM 45.0 °F 42.6 °F 39.0 °F 80% 29.62 in 10.0 mi WNW 4.6 mph - N/A   Clear
4:56 AM 48.0 °F - 41.0 °F 77% 29.61 in 10.0 mi West 4.6 mph - N/A   Clear
5:56 AM 48.0 °F - 41.0 °F 77% 29.62 in 10.0 mi NW 5.8 mph - N/A   Clear
6:56 AM 45.0 °F 40.1 °F 39.0 °F 80% 29.65 in 10.0 mi North 9.2 mph - N/A   Clear
7:56 AM 46.9 °F - 41.0 °F 80% 29.68 in 10.0 mi WNW 4.6 mph - N/A   Clear
8:56 AM 55.0 °F - 42.1 °F 62% 29.67 in 10.0 mi North 6.9 mph - N/A   Clear
9:56 AM 59.0 °F - 41.0 °F 51% 29.67 in 10.0 mi NNW 8.1 mph - N/A   Clear
10:56 AM 62.1 °F - 43.0 °F 50% 29.67 in 10.0 mi NNW 9.2 mph - N/A   Clear
11:56 AM 70.0 °F - 41.0 °F 35% 29.65 in 10.0 mi Variable 5.8 mph - N/A   Clear
12:56 PM 73.9 °F - 39.9 °F 29% 29.64 in 10.0 mi NW 6.9 mph - N/A   Clear
1:56 PM 75.9 °F - 37.9 °F 25% 29.63 in 10.0 mi NNW 9.2 mph - N/A   Clear
2:56 PM 79.0 °F - 28.0 °F 15% 29.60 in 10.0 mi NW 13.8 mph - N/A   Clear
3:56 PM 80.1 °F - 28.9 °F 15% 29.60 in 10.0 mi NW 10.4 mph - N/A   Clear
4:56 PM 81.0 °F - 30.0 °F 16% 29.58 in 10.0 mi WNW 10.4 mph - N/A   Clear
5:56 PM 73.9 °F - 30.9 °F 21% 29.60 in 10.0 mi WNW 11.5 mph - N/A   Clear
6:56 PM 70.0 °F - 30.0 °F 23% 29.62 in 10.0 mi NW 8.1 mph - N/A   Clear
7:56 PM 66.9 °F - 30.0 °F 25% 29.65 in 10.0 mi North 10.4 mph - N/A   Clear
8:56 PM 64.0 °F - 32.0 °F 30% 29.69 in 10.0 mi WSW 17.3 mph - N/A   Overcast
9:56 PM 61.0 °F - 39.9 °F 46% 29.72 in 10.0 mi WSW 26.5 mph 35.7 mph N/A   Mostly Cloudy
10:56 PM 61.0 °F - 39.9 °F 46% 29.70 in 10.0 mi West 18.4 mph 28.8 mph N/A   Overcast
11:56 PM 57.9 °F - 42.1 °F 56% 29.66 in 10.0 mi West 8.1 mph - N/A   Overcast